Weather History for KGRD - September, 2014

Change the Weather History Date:

Wednesday, September 10, 2014

  Actual Average (KAND) Record (KAND)
Temperature  
Mean Temperature 78 °F -  
Max Temperature 84 °F 85 °F 95 °F (2002)
Min Temperature 71 °F 64 °F 50 °F (1956)
Cooling Degree Days 13    
Growing Degree Days 28 (Base 50)    
Moisture  
Dew Point 67 °F    
Average Humidity 74    
Maximum Humidity 87    
Minimum Humidity 53    
Precipitation  
Precipitation 0.00 in - - ()
Sea Level Pressure  
Sea Level Pressure 30.08 in    
Wind  
Wind Speed 1 mph (East)    
Max Wind Speed 7 mph    
Max Gust Speed -    
Visibility 10 miles    
Events      
Averages and records for this station are not official NWS values.
T = Trace of Precipitation, MM = Missing Value Source: NWS Daily Summary

Daily Weather History Graph

Daily Weather History Graph

Search for Another Location

Airport or City:

Trip Planner

Search our weather history database for the weather conditions in past years. The results will help you decide how hot, cold, wet, or windy it might be!

Date:

Astronomy

Sep. 10, 2014 Rise Set
Actual Time 7:08 AM EDT 7:42 PM EDT
Civil Twilight 6:43 AM EDT 8:07 PM EDT
Nautical Twilight 6:13 AM EDT 8:37 PM EDT
Astronomical Twilight 5:42 AM EDT 9:07 PM EDT
Moon 8:47 PM EDT (9/10) 8:48 AM EDT (9/10)
Length of Visible Light 13h 24m
Length of Day
12h 33m
Waning Gibbous, 96% of the Moon is Illuminated
Sep 10
Waning Gibbous
Sep 15
Last Quarter
Sep 24
New
Oct 1
First Quarter
Oct 8
Full

Hourly Weather History & Observations

Time (EDT) Temp. Heat Index Dew Point Humidity Pressure Visibility Wind Dir Wind Speed Gust Speed Precip Events Conditions
1:56 AM 73.0 °F - 66.0 °F 79% 30.10 in 10.0 mi Calm Calm - N/A   Overcast
2:56 AM 73.0 °F - 66.9 °F 81% 30.09 in 10.0 mi Calm Calm - N/A   Overcast
3:56 AM 73.0 °F - 66.9 °F 81% 30.07 in 10.0 mi SE 3.5 mph - N/A   Overcast
4:56 AM 72.0 °F - 68.0 °F 87% 30.07 in 10.0 mi Calm Calm - N/A   Overcast
5:56 AM 72.0 °F - 66.9 °F 84% 30.08 in 10.0 mi Calm Calm - N/A   Overcast
6:56 AM 72.0 °F - 68.0 °F 87% 30.09 in 10.0 mi Calm Calm - N/A   Overcast
7:56 AM 72.0 °F - 68.0 °F 87% 30.12 in 10.0 mi Calm Calm - N/A   Overcast
8:56 AM 73.0 °F - 68.0 °F 84% 30.13 in 10.0 mi Calm Calm - N/A   Overcast
9:56 AM 73.9 °F - 68.0 °F 82% 30.14 in 10.0 mi Calm Calm - N/A   Overcast
10:56 AM 75.0 °F - 68.0 °F 79% 30.14 in 10.0 mi Calm Calm - N/A   Overcast
11:56 AM 79.0 °F - 66.9 °F 66% 30.14 in 10.0 mi ENE 3.5 mph - N/A   Mostly Cloudy
12:56 PM 80.1 °F 81.7 °F 64.0 °F 58% 30.12 in 10.0 mi SE 3.5 mph - N/A   Scattered Clouds
1:56 PM 84.0 °F 85.8 °F 64.9 °F 53% 30.09 in 10.0 mi NE 4.6 mph - N/A   Scattered Clouds
2:56 PM 84.0 °F 85.8 °F 64.9 °F 53% 30.07 in 10.0 mi ENE 6.9 mph - N/A   Overcast
3:56 PM 82.9 °F 84.6 °F 64.9 °F 54% 30.06 in 10.0 mi NE 4.6 mph - N/A   Overcast
4:56 PM 84.0 °F 85.8 °F 64.9 °F 53% 30.05 in 10.0 mi Calm Calm - N/A   Overcast
5:56 PM 82.9 °F 84.6 °F 64.9 °F 54% 30.04 in 10.0 mi Calm Calm - N/A   Overcast
6:56 PM 80.1 °F 82.7 °F 68.0 °F 67% 30.04 in 10.0 mi ESE 3.5 mph - N/A   Overcast
7:56 PM 77.0 °F - 66.9 °F 71% 30.03 in 10.0 mi ESE 3.5 mph - N/A   Partly Cloudy
8:56 PM 73.0 °F - 68.0 °F 84% 30.05 in 10.0 mi East 3.5 mph - N/A   Clear
9:56 PM 72.0 °F - 66.9 °F 84% 30.05 in 10.0 mi Calm Calm - N/A   Clear
10:56 PM 72.0 °F - 66.9 °F 84% 30.06 in 10.0 mi Calm Calm - N/A   Clear
11:56 PM 71.1 °F - 66.9 °F 87% 30.05 in 10.0 mi Calm Calm - N/A   Clear